Fort Lauderdale, FL

3:24 PM EST on January 23, 2017 (GMT -0500)
Fort Lauderdale Executive

Weather History for KFXE - September, 2013

Change the Weather History Date:

Thursday, September 5, 2013

  Actual Average Record
Temperature  
Mean Temperature 82 °F -  
Max Temperature 89 °F 91 °F 95 °F (1982)
Min Temperature 77 °F 74 °F 66 °F (1974)
Cooling Degree Days 18    
Growing Degree Days 32 (Base 50)    
Moisture  
Dew Point 75 °F    
Average Humidity 78    
Maximum Humidity 94    
Minimum Humidity 65    
Precipitation  
Precipitation 0.28 in - - ()
Sea Level Pressure  
Sea Level Pressure 30.04 in    
Wind  
Wind Speed 6 mph (East)    
Max Wind Speed 15 mph    
Max Gust Speed 25 mph    
Visibility 10 miles    
Events Rain , Thunderstorm    
Averages and records for this station are not official NWS values.
T = Trace of Precipitation, MM = Missing Value Source: NWS Daily Summary

Daily Weather History Graph

Daily Weather History Graph

Search for Another Location

Airport or City:

Trip Planner

Search our weather history database for the weather conditions in past years. The results will help you decide how hot, cold, wet, or windy it might be!

Date:

Astronomy

Sep. 05, 2013 Rise Set
Actual Time 7:02 AM EDT 7:35 PM EDT
Civil Twilight 6:39 AM EDT 7:58 PM EDT
Nautical Twilight 6:11 AM EDT 8:26 PM EDT
Astronomical Twilight 5:43 AM EDT 8:53 PM EDT
Moon 7:06 AM EDT (9/5) 7:35 PM EDT (9/5)
Length of Visible Light 13h 19m
Length of Day
12h 33m
New Moon, 0% of the Moon is Illuminated
Sep 5
New Moon
Sep 12
First Quarter
Sep 19
Full
Sep 26
Last Quarter
Oct 4
New

Hourly Weather History & Observations

Time (EDT) Temp. Heat Index Dew Point Humidity Pressure Visibility Wind Dir Wind Speed Gust Speed Precip Events Conditions
12:53 AM 82.9 °F 90.8 °F 75.9 °F 79% 30.06 in 10.0 mi ENE 4.6 mph - N/A   Partly Cloudy
1:46 AM 82.4 °F 89.5 °F 75.2 °F 79% 30.04 in 10.0 mi NE 3.5 mph - N/A   Scattered Clouds
1:53 AM 82.0 °F 89.4 °F 75.9 °F 82% 30.04 in 10.0 mi NE 4.6 mph - N/A   Scattered Clouds
1:54 AM 82.4 °F 89.5 °F 75.2 °F 79% 30.03 in 10.0 mi ENE 4.6 mph - N/A   Partly Cloudy
1:56 AM 82.4 °F 89.5 °F 75.2 °F 79% 30.03 in 10.0 mi NE 4.6 mph - N/A Thunderstorm Thunderstorm
2:32 AM 78.8 °F - 75.2 °F 89% 30.04 in 10.0 mi East 15.0 mph 25.3 mph N/A Rain , Thunderstorm Heavy Thunderstorms and Rain
2:48 AM 77.0 °F - 73.4 °F 89% 30.02 in 10.0 mi ENE 6.9 mph - N/A Rain , Thunderstorm Light Thunderstorms and Rain
2:53 AM 78.1 °F - 73.9 °F 87% 30.02 in 10.0 mi East 5.8 mph - N/A Rain , Thunderstorm Light Thunderstorms and Rain
3:46 AM 78.8 °F - 75.2 °F 89% 30.01 in 10.0 mi Calm Calm - 0.00 in   Partly Cloudy
3:53 AM 77.0 °F - 75.0 °F 94% 30.02 in 10.0 mi Calm Calm - 0.00 in   Scattered Clouds
4:53 AM 79.0 °F - 77.0 °F 94% 30.01 in 10.0 mi Calm Calm - N/A   Scattered Clouds
5:53 AM 79.0 °F - 77.0 °F 94% 30.02 in 10.0 mi East 4.6 mph - N/A   Scattered Clouds
6:53 AM 80.1 °F 85.4 °F 75.9 °F 87% 30.04 in 10.0 mi ESE 3.5 mph - N/A   Clear
7:53 AM 82.0 °F 88.6 °F 75.0 °F 79% 30.04 in 10.0 mi East 8.1 mph - N/A   Clear
8:53 AM 84.0 °F 92.6 °F 75.9 °F 76% 30.05 in 10.0 mi East 10.4 mph - N/A   Mostly Cloudy
9:53 AM 84.9 °F 94.1 °F 75.9 °F 74% 30.07 in 10.0 mi East 11.5 mph - N/A   Mostly Cloudy
10:34 AM 86.0 °F 95.1 °F 75.2 °F 70% 30.07 in 10.0 mi East 12.7 mph - N/A   Mostly Cloudy
10:53 AM 87.1 °F 98.8 °F 77.0 °F 72% 30.08 in 10.0 mi East 10.4 mph - N/A   Scattered Clouds
11:22 AM 87.8 °F 99.7 °F 77.0 °F 70% 30.07 in 10.0 mi East 12.7 mph 19.6 mph N/A   Mostly Cloudy
11:32 AM 87.8 °F 97.6 °F 75.2 °F 66% 30.07 in 10.0 mi ENE 11.5 mph - N/A   Mostly Cloudy
11:53 AM 88.0 °F 97.5 °F 75.0 °F 65% 30.08 in 10.0 mi ESE 11.5 mph - N/A   Scattered Clouds
12:53 PM 88.0 °F 97.5 °F 75.0 °F 65% 30.08 in 10.0 mi East 11.5 mph - N/A   Partly Cloudy
1:53 PM 87.1 °F 96.3 °F 75.0 °F 67% 30.06 in 10.0 mi East 13.8 mph - N/A   Scattered Clouds
2:53 PM 86.0 °F 95.1 °F 75.0 °F 70% 30.05 in 10.0 mi East 10.4 mph - N/A   Scattered Clouds
3:53 PM 86.0 °F 96.0 °F 75.9 °F 72% 30.03 in 10.0 mi East 8.1 mph - N/A   Clear
4:53 PM 86.0 °F 95.1 °F 75.0 °F 70% 30.01 in 10.0 mi East 9.2 mph - N/A   Mostly Cloudy
5:53 PM 86.0 °F 95.1 °F 75.0 °F 70% 30.02 in 10.0 mi ENE 8.1 mph - N/A   Scattered Clouds
6:53 PM 84.9 °F 93.3 °F 75.0 °F 72% 30.01 in 10.0 mi East 9.2 mph - N/A   Clear
7:53 PM 82.9 °F 90.8 °F 75.9 °F 79% 30.01 in 10.0 mi East 8.1 mph - N/A   Clear
8:53 PM 82.0 °F 88.6 °F 75.0 °F 79% 30.03 in 10.0 mi East 5.8 mph - N/A   Clear
9:53 PM 82.9 °F 90.2 °F 75.0 °F 77% 30.06 in 10.0 mi ENE 4.6 mph - N/A   Partly Cloudy
10:53 PM 82.9 °F 90.2 °F 75.0 °F 77% 30.06 in 10.0 mi ENE 4.6 mph - N/A   Clear
11:53 PM 82.0 °F 88.6 °F 75.0 °F 79% 30.06 in 10.0 mi NE 3.5 mph - N/A   Clear